Regional Weather Roundup
Issued by NWS Upton, NY

Current Version | Previous Version | Text Only | Print | Product List | Glossary Off
Versions: 1 2 3 4 5 6 7 8 9 10 11 12 13 14 15 16 17 18 19 20 21 22 23 24 25 26 27 28
000 ASUS41 KOKX 071108 RWROKX REGIONAL WEATHER ROUNDUP NATIONAL WEATHER SERVICE NEW YORK NY 600 AM EST WED DEC 07 2016 NOTE: "FAIR" INDICATES FEW OR NO CLOUDS BELOW 12,000 FEET WITH NO SIGNIFICANT WEATHER AND/OR OBSTRUCTIONS TO VISIBILITY. NYZ071-072-176-178-NJZ106-104-071200- NEW YORK CITY METRO AREA CITY SKY/WX TMP DP RH WIND PRES REMARKS Central Park CLOUDY 40 38 93 E7 29.95R Wall St Helipt CLOUDY 43 40 89 NE8 29.94R Bronx Bot Gard NOT AVBL LaGuardia APRT CLOUDY 42 38 85 NE9 29.93R Kennedy INTL CLOUDY 42 38 85 N13 29.93R Breezy Point N/A 39 N/A N/A NE10 N/A WCI 32 Newark/Liberty CLOUDY 39 37 92 N12 29.93R WCI 32 Teterboro CLOUDY 39 36 89 N8 29.93R FOG WCI 33 $$ NYZ177-179-078>081-071200- LONG ISLAND NEW YORK CITY SKY/WX TMP DP RH WIND PRES REMARKS Jones Beach N/A 41 N/A N/A NE13 N/A Matinecock PT NOT AVBL Farmingdale CLOUDY 41 39 93 N8 29.92R MacArthur/ISP DRIZZLE 41 40 96 NE9 29.91R Shirley CLOUDY 41 40 96 N5 29.92R FOG Westhampton LGT RAIN 41 39 93 N10 29.93R FOG Southampton NOT AVBL Bridgehampton NOT AVBL East Hampton CLOUDY 40 39 94 NE6 29.90R Montauk N/A 42 40 92 NE10 29.90F $$ NYZ052-065-067-071200- HUDSON VALLEY CITY SKY/WX TMP DP RH WIND PRES REMARKS White Plains MOCLDY 37 34 89 N6 29.91R WCI 32 Newburgh CLOUDY 34 34 100 CALM 29.95R FOG Montgomery MIX PCPN 34 33 96 CALM 29.93R FOG Poughkeepsie CLOUDY 33 32 96 CALM 29.95R Albany DRIZZLE 33 31 92 CALM 29.94R FOG $$ NJZ001-105-106-008-010-013-015-019>022-104-071200- NEW JERSEY CITY SKY/WX TMP DP RH WIND PRES REMARKS Newark/Liberty CLOUDY 39 37 92 N12 29.93R WCI 32 Teterboro CLOUDY 39 36 89 N8 29.93R FOG WCI 33 Caldwell CLOUDY 38 36 92 VRB3 29.94R Somerville CLOUDY 39 36 89 N3 29.91R Linden CLOUDY 39 37 91 NE5 29.93R Sussex CLOUDY 35 34 96 CALM 29.93R Andover N/A 34 33 96 NE3 29.93R Trenton CLOUDY 40 37 89 N5 29.92R Millville CLOUDY 42 42 100 NW6 29.90R Atlantic City LGT RAIN 45 43 93 NW9 29.89R FOG Wrightstown CLOUDY 41 40 96 NW6 29.89R Toms River LGT RAIN 44 43 96 NE10 29.91R Belmar CLOUDY 42 41 96 N7 29.91R $$ PAZ047>061-062-071-071200- EASTERN PENNSYLVANIA CITY SKY/WX TMP DP RH WIND PRES REMARKS Philadelphia CLOUDY 41 39 93 N8 29.93R Allentown CLOUDY 38 36 92 CALM 29.94R FOG Scranton LGT RAIN 35 34 96 CALM 29.92R FOG $$ CTZ002-004>006-009-010-012-RIZ004-006-007-MAZ004-011-015-071200- SOUTHERN NEW ENGLAND IN CT CITY SKY/WX TMP DP RH WIND PRES REMARKS Bradley INTL DRIZZLE 34 32 92 N6 29.95R FOG WCI 29 Hartford CLOUDY 35 34 96 N7 29.96R FOG WCI 29 Danbury CLOUDY 34 33 96 E3 29.94R FOG Wtrbury/Oxford CLOUDY 34 30 86 E5 29.93R FOG WCI 30 Bridgeport CLOUDY 39 35 86 N10 29.95R WCI 32 Meriden LGT RAIN 37 34 89 NW3 29.95R FOG New Haven CLOUDY 36 35 96 N7 29.94R WCI 30 Chester CLOUDY 36 36 100 N6 29.93R FOG WCI 31 Groton LGT RAIN 40 38 93 NE9 29.91S FOG WCI 34 Wilimantic CLOUDY 37 35 92 NW5 29.95R FOG WCI 33 IN RI CITY SKY/WX TMP DP RH WIND PRES REMARKS Providence LGT RAIN 37 35 92 NE6 29.93R FOG WCI 32 Block Island NOT AVBL Westerly CLOUDY 38 35 89 N7 29.92S WCI 33 IN MA CITY SKY/WX TMP DP RH WIND PRES REMARKS Boston LGT RAIN 39 37 92 E10 29.94S FOG WCI 32 Worcester SNOW 31 30 96 NE3 29.90S VSB 1/2 Westfield LGT RAIN 33 33 100 NE3 29.95R FOG Provincetown LGT RAIN 41 35 79 E8 29.94R Nantucket LGT RAIN 43 36 76 NE12 29.90R $$ ANZ330-335-338-340-345-350-353-355-071200- COASTAL MARINE OBSERVATIONS STATION/POSITION TIME SKY/WX TEMP WIND PRES VSBY WAVE AIR SEA DIR/SP/G HT/PER (UTC) (F) (DEG/KT/KT) (MB) (MI) (FT/S) NY HARB ENTRANCE 1050 45 53 40/ 16/ 19 1012.3 7/ 7 20 S FIRE ISLAND 0950 47 54 50/ 17/ 21 1010.3 9/ 8 GREAT SOUTH BAY 1015 42 43 N/A 23 SSW MONTAUK P 0950 45 54 80/ 19/ 23 1011.1 7/ 6 15 E BARNEGAT LI 1030 54 N/A 10/ 8 HUDSON CANYON 1050 51 58 1008.8 10/ 7 KINGS POINT 1042 40 48 1013.1 EXECUTION ROCKS 1045 41 30/ 12/ 14 N/A CENTRAL LI SOUND 1045 40 50 40/ 14/ 19 N/A 3/ 4 EASTERN LI SOUND NOT AVBL ROBBINS REEF 1042 40 360/ 7/ 9 1013.4 $$ >>>>>>>>>>>>>>>>>>>>>>>>>>>> KEY <<<<<<<<<<<<<<<<<<<<<<<<<<< > < > SKY/WX - Sky Condition/Present Weather < > TMP - Temperature in Fahrenheit < > DP - Dew Point in Fahrenheit < > RH - Relative Humidity in Percent < > WIND - Direction (from) and Speed in MPH < > PRES - Mean Sea Level Pressure (inches of Hg) < > WCI - Wind Chill Index < > VSB - VISIBILITY IN MILES < > HX - HEAT INDEX < > TC - TEMPERATURE IN CELSIUS < > VRB - VARIABLE WIND DIRECTION < > < >>>>>>>>>>>>>>>>>>>>>>>>>>>> KEY <<<<<<<<<<<<<<<<<<<<<<<<<<<

USA.gov is the U.S. government's official web portal to all federal, state and local government web resources and services.